Back to Previous

Regional Weather Roundup

368 
ASUS44 KLZK 011605
RWRLZK

WEATHER ROUNDUP FOR ARKANSAS
NATIONAL WEATHER SERVICE LITTLE ROCK AR
1100 AM CDT WED JUL 01 2015

NOTE: "FAIR" INDICATES FEW OR NO CLOUDS BELOW 12,000 FEET WITH NO
SIGNIFICANT WEATHER AND/OR OBSTRUCTIONS TO VISIBILITY.

ARZ001-003-010-029-011700-
NORTHWEST ARKANSAS
  
CITY           SKY/WX    TMP DP  RH WIND       PRES   REMARKS
FAYETTEVILLE   CLOUDY    82  72  71 VRB3      29.99R HX  87           
FORT SMITH     PTSUNNY   86  70  58 SW7       29.95R HX  90           
HARRISON       CLOUDY    78  71  79 S7        30.03R                  
BENTONVILLE    CLOUDY    82  70  65 SW7       29.99S HX  86           
ROGERS         CLOUDY    82  72  71 S6        29.99F HX  87           
SILOAM SPGS    CLOUDY    82  70  65 S6        29.98S HX  86           
HIGHFILL       CLOUDY    82  73  74 S6        29.98S HX  87           
SPRINGDALE     PTSUNNY   82  72  69 SW7       30.01S HX  87           
$$

ARZ004-005-016-011700-
NORTH CENTRAL ARKANSAS
  
CITY           SKY/WX    TMP DP  RH WIND       PRES   REMARKS
BATESVILLE     CLOUDY    79  70  73 SE3       30.03R                  
FLIPPIN        CLOUDY    72  66  83 CALM      29.99R                  
MTN HOME       CLOUDY    70  69  97 CALM      30.02R                  
$$

ARZ040-041-011700-
WEST CENTRAL ARKANSAS
  
CITY           SKY/WX    TMP DP  RH WIND       PRES   REMARKS
MENA           MOSUNNY   86  72  62 SW7       30.02S HX  92           
MOUNT IDA      MOSUNNY   83  70  64 CALM      29.99S HX  87           
$$

ARZ009-017-025-026-028-011700-
NORTHEAST ARKANSAS
  
CITY           SKY/WX    TMP DP  RH WIND       PRES   REMARKS
JONESBORO      CLOUDY    80  67  64 NE6       30.01R                  
NEWPORT        CLOUDY    81  72  74 CALM      30.03R HX  85           
WALNUT RIDGE   CLOUDY    75  66  73 NE7       30.00R                  
BLYTHEVILLE    CLOUDY    79  73  82 N9        30.00R                  
NW BLYTHEVILLE CLOUDY    79  70  73 N10       30.00R                  
$$

ARZ022-023-033-042-044-011700-
CENTRAL ARKANSAS
  
CITY           SKY/WX    TMP DP  RH WIND       PRES   REMARKS
LITTLE ROCK    PTSUNNY   84  71  65 SW10      30.00S HX  89           
N LITTLE ROCK  PTSUNNY   81  74  79 S7        30.00S HX  87           
JACKSONVILLE   PTSUNNY   82  73  72 VRB3      30.00R HX  88           
HOT SPRINGS      N/A    N/A N/A N/A MISG      30.02S                  
RUSSELLVILLE   CLOUDY    83  73  72 CALM      29.99R HX  89           
CLINTON        FAIR      81  75  83 CALM      30.02R HX  86           
$$

ARZ036-011700-
EAST ARKANSAS
  
CITY           SKY/WX    TMP DP  RH WIND       PRES   REMARKS
WEST MEMPHIS   CLOUDY    80  74  81 SW7       30.02R HX  85           
$$

ARZ050-053-066-070-073-011700-
SOUTHWEST ARKANSAS
  
CITY           SKY/WX    TMP DP  RH WIND       PRES   REMARKS
ARKADELPHIA    FAIR      86  74  67 SW8       30.02S HX  94           
CAMDEN         MOSUNNY   86  68  54 MISG      30.03R HX  89           
TEXARKANA      SUNNY     85  72  65 SW10      30.03R HX  91           
EL DORADO      MOSUNNY   83  70  64 SW9       30.05R HX  87           
DE QUEEN       MOSUNNY   83  72  69 SW10      30.00R HX  88           
$$

ARZ056-057-069-011700-
SOUTHEAST ARKANSAS
  
CITY           SKY/WX    TMP DP  RH WIND       PRES   REMARKS
PINE BLUFF     SUNNY     83  72  69 SW12      30.03R HX  88           
STUTTGART      MOSUNNY   84  73  70 SW13      30.01R HX  91           
MONTICELLO     MOSUNNY   84  73  69 W9        30.05R HX  90           

$$




USA.gov is the U.S. government's official web portal to all federal, state and local government web resources and services.